Vorticity
nan nan nan nan nan nan nan nan nan nan nan nan nan nan nan nan nan nan nan nan nan nan nan nan nan nan nan nan nan nan nan nan nan nan nan nan nan nan
nan 9 12 12 12 11 9 10 9 7 9 9 7 6 8 8 6 9 8 4 4 8 8 10 12 9 8 9 11 13 14 12 9 6 4 5 5 nan
nan 9 9 11 13 13 10 9 10 8 8 10 9 7 7 7 8 10 8 7 2 3 6 6 9 12 14 12 11 10 10 7 5 5 5 5 5 nan
nan 8 9 10 13 13 11 11 12 10 8 8 9 9 7 8 10 9 10 9 6 4 6 6 6 7 13 17 10 6 7 11 11 9 9 7 6 nan
nan 8 8 7 10 13 12 13 13 12 10 9 9 10 7 8 10 8 8 9 6 5 8 7 6 8 7 15 18 8 5 6 9 9 8 8 8 nan
nan 8 8 8 9 11 9 9 10 14 14 11 10 9 9 8 9 7 7 8 8 8 7 9 9 8 8 7 15 18 11 6 5 4 5 7 7 nan
nan 9 8 6 8 13 10 9 12 12 13 13 11 10 9 9 9 9 8 9 10 10 8 7 9 9 7 8 8 10 17 15 7 5 5 6 6 nan
nan 9 9 11 10 7 8 12 15 15 12 10 9 10 10 9 9 9 9 10 12 7 5 9 10 8 8 6 6 9 11 18 18 11 8 6 6 nan
nan 10 10 8 13 13 6 9 9 9 12 12 10 11 12 9 8 9 10 9 8 6 8 10 10 11 10 7 5 8 9 10 11 11 14 14 9 nan
nan 10 9 9 14 13 5 8 9 8 9 11 12 13 13 13 11 8 7 9 11 12 10 10 10 10 8 9 9 10 11 11 9 8 9 9 12 nan
nan 9 10 9 10 14 13 7 9 10 7 9 12 12 10 17 19 10 7 8 11 12 12 11 9 10 11 12 11 12 15 14 12 11 11 12 11 nan
nan 8 8 8 11 15 15 9 12 9 6 8 9 11 11 11 12 13 11 9 9 10 7 7 9 10 13 11 8 9 10 12 12 10 10 12 14 nan
nan 9 6 7 11 12 13 13 15 10 8 10 9 9 9 10 10 11 11 10 10 7 3 8 10 10 9 5 6 8 9 10 10 9 11 13 11 nan
nan 9 6 8 12 13 11 11 15 14 12 10 11 9 9 9 10 11 10 10 10 8 9 9 9 8 8 8 8 8 8 9 9 11 12 13 14 nan
nan 7 9 11 14 11 9 14 15 13 10 10 10 10 10 9 11 13 13 11 11 13 13 11 7 9 9 8 8 8 10 12 12 11 10 12 13 nan
nan 11 10 11 11 11 11 12 12 10 11 11 10 11 11 11 12 11 10 10 11 13 15 15 11 8 9 9 9 9 10 10 10 11 12 11 9 nan
nan 13 10 10 9 10 10 10 11 10 11 11 11 11 11 11 11 11 11 9 8 9 11 13 16 15 10 8 8 10 10 11 10 11 12 12 11 nan
nan 10 10 10 9 9 10 11 10 10 11 11 11 11 11 11 11 12 12 11 11 10 10 11 12 14 15 18 10 3 9 10 11 12 14 13 11 nan
nan 10 10 10 10 10 10 10 10 11 11 11 11 11 11 10 11 12 12 11 11 11 11 12 13 12 10 11 23 13 3 9 10 12 13 12 9 nan
nan 10 10 10 10 10 10 10 10 11 11 11 11 11 11 11 11 11 10 10 10 11 12 12 12 10 11 11 10 18 15 8 10 10 11 11 11 nan
nan 11 11 11 11 11 11 10 11 10 10 12 12 11 10 11 11 11 9 8 13 13 11 11 9 13 16 14 11 10 16 16 8 7 9 9 14 nan
nan 10 10 11 11 11 11 11 11 11 11 11 11 10 10 11 11 10 11 12 13 12 12 11 13 18 16 11 8 10 11 13 16 15 14 12 11 nan
nan nan nan nan nan nan nan nan nan nan nan nan nan nan nan nan nan nan nan nan nan nan nan nan nan nan nan nan nan nan nan nan nan nan nan nan nan nan
CAPE
13 6 41 38 9 39 47 4 27 27 22 12 7 0 0 0 0 0 0 90 96 67 71 36 2 1 15 48 85 106 205 231 180 137 71 25 4 1
0 13 30 14 19 16 35 45 45 24 21 11 8 4 0 0 0 0 0 0 17 42 45 56 35 5 13 27 27 51 66 90 89 6 2 1 1 0
0 0 6 6 12 21 21 32 38 32 24 5 1 1 1 0 0 0 0 0 0 1 3 6 7 44 10 24 48 20 17 35 3 0 0 0 0 0
0 0 0 1 1 18 15 48 55 31 26 17 2 1 0 0 0 0 0 0 0 0 1 0 0 0 29 30 19 0 0 0 0 0 0 0 0 0
0 0 3 16 8 40 26 11 41 35 23 30 19 12 4 0 0 0 0 0 0 0 0 0 0 0 0 1 63 14 0 0 0 0 0 0 0 0
0 0 0 7 35 23 11 6 44 42 40 49 26 3 0 0 1 4 2 4 0 0 0 0 0 0 0 0 1 93 34 22 0 0 0 0 0 0
0 0 0 15 68 40 43 10 5 15 14 35 28 15 30 10 6 6 5 3 3 1 2 2 0 0 0 0 0 0 47 102 53 7 0 2 0 0
0 0 0 0 0 37 33 17 3 21 2 9 10 10 19 7 3 3 11 6 6 4 8 4 6 0 0 0 0 0 0 26 86 83 74 60 19 0
0 0 0 0 0 0 0 0 0 0 9 19 3 9 7 1 1 1 6 3 16 8 9 13 7 13 2 0 0 0 0 0 0 0 32 84 71 55
0 0 0 0 3 0 0 6 0 2 6 15 23 12 1 0 6 9 9 4 5 2 8 13 5 6 3 2 0 0 0 0 0 0 0 6 39 66
0 0 0 0 14 9 0 4 2 4 0 3 4 4 3 1 8 13 20 6 5 10 10 17 30 19 16 3 3 0 0 0 0 0 0 3 1 9
0 0 0 5 11 10 1 0 0 4 1 0 1 0 0 0 1 1 5 5 4 6 14 11 14 24 15 9 11 5 2 0 0 0 0 0 1 7
0 0 0 2 4 3 3 0 13 0 0 0 1 4 4 4 5 3 3 5 5 3 4 7 5 3 7 14 9 7 4 2 1 0 0 0 0 0
0 0 0 0 0 0 0 4 3 0 0 0 0 1 2 2 0 1 1 4 6 6 5 4 10 8 8 12 6 7 6 5 7 5 1 0 1 2
0 0 0 0 0 0 0 0 0 0 0 0 0 0 0 0 0 0 0 0 0 0 0 3 9 10 11 9 11 4 16 5 4 3 4 5 5 6
0 0 0 0 0 0 0 0 0 0 0 0 0 0 0 0 0 1 3 2 4 4 0 0 0 0 4 5 8 7 3 7 3 5 4 4 2 5
0 0 0 0 0 0 0 0 0 0 0 0 0 0 0 0 0 0 1 5 5 4 3 5 9 3 2 3 5 5 3 6 5 3 5 8 9 6
0 0 0 0 0 0 0 0 0 0 0 0 0 0 0 0 0 0 0 0 0 0 0 0 1 3 5 3 6 2 4 7 6 6 5 8 9 4
0 0 0 0 0 0 0 0 0 0 0 0 0 0 0 0 0 0 0 0 0 0 0 0 1 4 3 1 2 17 24 15 17 9 9 8 7 11
0 1 1 0 0 0 0 0 0 0 0 0 0 0 0 0 0 0 0 0 0 0 0 0 0 2 8 6 12 5 2 12 13 16 22 20 3 17
0 1 1 0 1 1 0 0 0 0 0 0 0 0 0 0 0 0 0 0 0 0 0 0 0 1 6 7 3 3 1 1 19 26 27 26 14 17
1 2 1 1 1 1 1 0 0 0 0 1 2 1 0 0 0 0 0 0 0 0 0 0 0 1 5 5 5 5 7 5 1 0 2 21 30 33
1 2 3 1 1 1 1 1 1 1 3 1 2 0 0 0 0 0 0 0 0 0 0 0 0 1 2 3 4 6 6 8 9 3 2 1 0 0